Simultaneous Nadir Overpasses (SNOs) Predictions

Prediction of SNOs between AQUA and METOP-B Satellite Orbit:

Table of predicted SNOs for the next 14.0 days since TLE Epoch: 7/2/2022
Index Date (AQUA) Time (AQUA) Lat,Lon (AQUA) SZA (AQUA ) Date (METOP-B) Time (METOP-B) Lat,Lon (METOP-B) SZA (METOP-B ) Distance(km) Time Diff (sec)
1 07/04/2022 07:37:38 73.67, 60.86 50.81 07/04/2022 07:36:28 73.59, 59.49 50.80 43.88 70
2 07/04/2022 08:27:09 -73.98,-132.19 128.85 07/04/2022 08:27:02 -73.99,-132.22 128.84 1.70 7
3 07/04/2022 09:16:38 74.07, 35.24 51.25 07/04/2022 09:17:40 74.06, 35.29 51.23 1.55 62
4 07/07/2022 03:11:24 73.94, 126.86 51.38 07/07/2022 03:10:43 73.95, 126.75 51.40 3.73 41
5 07/07/2022 04:00:51 -74.04, -65.72 128.52 07/07/2022 04:01:23 -74.06, -65.66 128.50 2.80 32
6 07/09/2022 21:55:38 -73.96, 25.76 128.28 07/09/2022 21:54:26 -73.94, 25.80 128.29 2.77 72
7 07/09/2022 22:45:06 74.01,-166.71 51.78 07/09/2022 22:45:04 74.01,-166.70 51.78 0.33 2
8 07/09/2022 23:34:32 -74.05, 0.84 128.17 07/09/2022 23:35:45 -74.07, 0.77 128.16 2.52 73
9 07/12/2022 17:29:18 -73.99, 92.29 127.87 07/12/2022 17:28:46 -73.99, 92.34 127.86 1.64 32
10 07/12/2022 18:18:46 74.04,-100.19 52.20 07/12/2022 18:19:24 74.06,-100.16 52.21 2.06 38
11 07/15/2022 12:13:32 73.95, -8.65 52.51 07/15/2022 12:12:27 73.93, -8.72 52.51 2.57 65
12 07/15/2022 13:02:59 -74.03, 158.79 127.39 07/15/2022 13:03:07 -74.05, 158.88 127.38 2.98 8



Historial Predications of SNOs between AQUA and METOP-B
